Flag for Germany Weather past 2 weeks in Wesseling, North Rhine-Westphalia, Germany

Now
53 °F

Overcast.


Feels Like: 52 °F
Forecast: 43 / 50 °F
Wind: 3 mph from West

Location: Koeln / Bonn

Current Time: Mar 29, 2015 at 5:20:43 AM

Latest Report: Mar 29, 2015 at 4:00 AM


Visibility: 31 mi

Pressure: 29.77 "Hg

Humidity: 83%

Dew point: 47 °F

Location of WesselingLocation

Historic Weather in Wesseling — Graph

°F

Wesseling temperature yesterday

Maximum temperature yesterday: 55 °F (at 12:00 PM)
Minimum temperature yesterday: 36 °F (at 6:00 AM)
Average temperature yesterday: 46 °F

Past Weeks' High & Low Weather Summary

 TemperatureHumidityPressure
High66 °F (Mar 17, 5:00 PM)100% (Mar 16, 7:00 AM)30.38 "Hg (Mar 16, 7:00 AM)
Low29 °F (Mar 23, 5:00 AM)32% (Mar 17, 4:00 PM)29.66 "Hg (Mar 25, 3:00 AM)
Average44 °F78%30.11 "Hg
* Reported Mar 14 3:00 AM — Mar 29 4:00 AM, Wesseling, Weather by CustomWeather, © 2015

Note: Actual official high and low records may vary slightly from our data, if they occured in-between our weather recording intervals... More about our weather records

Advertising

Wesseling weather history for previous 24 hours

 ConditionsComfort  
Time TempWeatherWind HumidityBarometerVisibility
4:00 AM
Sun, Mar 29
53 °FOvercast.3 mph83%29.77 "Hg31 mi
3:00 AM53 °FOvercast.6 mph84%29.78 "Hg19 mi
1:00 AM53 °FLow clouds.5 mph88%29.80 "Hg16 mi
12:00 AM51 °FRain. Overcast.3 mph91%29.83 "Hg22 mi
11:00 PM
Sat, Mar 28
50 °FLight rain. Overcast.3 mph91%29.85 "Hg22 mi
10:00 PM49 °FOvercast.5 mph92%29.87 "Hg31 mi
9:00 PM49 °FRain. Overcast.5 mph92%29.90 "Hg9 mi
8:00 PM49 °FOvercast.3 mph89%29.93 "Hg31 mi
7:00 PM48 °FOvercast.5 mph94%29.93 "Hg19 mi
6:00 PM47 °FOvercast.3 mph97%29.94 "Hg9 mi
5:00 PM47 °FDrizzle. Low clouds.3 mph98%29.98 "Hg1 mi
4:00 PM48 °FRain. Overcast.5 mph92%29.99 "Hg5 mi
3:00 PM49 °FLight rain. Overcast.5 mph83%30.01 "Hg10 mi
2:00 PM51 °FLight rain. Overcast.7 mph67%30.03 "Hg11 mi
1:00 PM53 °FOvercast.8 mph55%30.05 "Hg28 mi
12:00 PM55 °FOvercast.8 mph47%30.07 "Hg28 mi
11:00 AM53 °FOvercast.8 mph48%30.11 "Hg28 mi
10:00 AM50 °FOvercast.5 mph57%30.14 "Hg31 mi
9:00 AM44 °FPartly sunny.2 mph69%30.16 "Hg31 mi
8:00 AM40 °FOvercast.3 mph76%30.18 "Hg31 mi
7:00 AM37 °FPassing clouds.2 mph84%30.19 "Hg16 mi
6:00 AM36 °FPassing clouds.2 mph88%30.20 "Hg16 mi
5:00 AM38 °FPassing clouds.2 mph87%30.21 "Hg22 mi
Weather by CustomWeather, © 2015

See weather overviewHow to use our weather pages